User: anonymous   Login
Location: Unspecified
(0.0000°N, 0.0000°E)
Time: 11:18:40
(UTC+00:00)
Language:

SPROUT - Orbit

View from above orbital plane
View from above orbital plane
View from above satellite
View from above satellite

Ground track
Ground track

The orbit data is extracted from the following two-line orbital elements,

1 39770U 14029E   19344.06660879  .00000500  00000-0  61242-4 0  9999
2 39770  97.8909  86.3156 0007976 229.0653 130.9889 14.87532965300758
Epoch (UTC): 10 December 2019 01:35:54
Eccentricity: 0.0007976
inclination: 97.8909°
perigee height: 600 km
apogee height: 611 km
right ascension of ascending node: 86.3156°
argument of perigee: 229.0653°
revolutions per day: 14.87532965
mean anomaly at epoch: 130.9889°
orbit number at epoch: 30075

The dashed part of the orbit path shows where the satellite is in the earth's shadow,  

DLR